Retour au catalogue

OPS 5805

ActifMilitaireHEO
NORAD 12093·PAYLOAD·🇺🇸 United States

Lancé Dec 13, 1980 depuis Vandenberg Space Force Base

Loading…

Prochains Passages (prochaines 24 heures)

TLE

FraisSource: Space-Track

Époque: Sep 10, 2026, 19:38 UTC

1 12093U 80100A   26253.81848112 -.00000638  00000-0  00000-0 0  9993
2 12093  63.8650 195.0287 6415106 267.0824  23.2749  2.00268455 53871

Suivez OPS 5805 en temps réel avec AllMySat

Download on the App Store